Weather History for Lubbock, TX

Change the Weather History Date:

Saturday, September 7, 2013

  Actual Average Record
Temperature  
Mean Temperature 81 °F 75 °F  
Max Temperature 95 °F 87 °F 99 °F (2012)
Min Temperature 66 °F 62 °F 45 °F (1918)
Degree Days  
Heating Degree Days 0 0  
Month to date heating degree days 0 0  
Since 1 July heating degree days 0 0  
Cooling Degree Days 16 10  
Month to date cooling degree days 107 74  
Year to date cooling degree days 1835 1600  
Growing Degree Days 30 (Base 50)    
Moisture  
Dew Point 56 °F    
Average Humidity 47    
Maximum Humidity 68    
Minimum Humidity 26    
Precipitation  
Precipitation 0.00 in 0.09 in 1.58 in (1937)
Month to date precipitation T 0.59  
Year to date precipitation 9.78 13.66  
Snow  
Snow 0.00 in 0.00 in - ()
Month to date snowfall 0.0 0.0  
Since 1 July snowfall 0.0 0.0  
Since 1 September snowfall 0.0 0.0  
Snow Depth 0.00 in    
Sea Level Pressure  
Sea Level Pressure 29.94 in    
Wind  
Wind Speed 8 mph (South)    
Max Wind Speed 26 mph    
Max Gust Speed 32 mph    
Visibility 10 miles    
Events      
T = Trace of Precipitation, MM = Missing Value Source: NWS Daily Summary

Daily Weather History Graph

Daily Weather History Graph

Search for Another Location

Airport:

Trip Planner

Search our weather history database for the weather conditions in past years. The results will help you decide how hot, cold, wet, or windy it might be!

Date:

Astronomy

Sep. 07, 2013 Rise Set
Actual Time 7:25 AM CDT 8:04 PM CDT
Civil Twilight 7:00 AM CDT 8:29 PM CDT
Nautical Twilight 6:30 AM CDT 8:59 PM CDT
Astronomical Twilight 6:00 AM CDT 9:29 PM CDT
Moon 9:32 AM CDT (9/7) 9:14 PM CDT (9/7)
Length of Visible Light 13h 29m
Length of Day
12h 38m
Waxing Crescent, 5% of the Moon is Illuminated
Sep 7
Waxing Crescent
Sep 12
First Quarter
Sep 19
Full
Sep 26
Last Quarter
Oct 4
New

Hourly Weather History & Observations

Time (CDT) Temp. Heat Index Dew Point Humidity Pressure Visibility Wind Dir Wind Speed Gust Speed Precip Events Conditions
12:53 AM 75.9 °F - 53.1 °F 45% 29.95 in 10.0 mi South 6.9 mph - N/A   Clear
1:53 AM 77.0 °F - 53.1 °F 43% 29.95 in 10.0 mi South 9.2 mph - N/A   Clear
2:53 AM 77.0 °F - 53.1 °F 43% 29.94 in 10.0 mi SSW 9.2 mph - N/A   Clear
3:53 AM 77.0 °F - 54.0 °F 45% 29.94 in 10.0 mi SSW 9.2 mph - N/A   Clear
4:53 AM 75.0 °F - 54.0 °F 48% 29.94 in 10.0 mi SW 5.8 mph - N/A   Clear
5:53 AM 71.1 °F - 54.0 °F 55% 29.94 in 10.0 mi WSW 6.9 mph - N/A   Clear
6:53 AM 66.9 °F - 54.0 °F 63% 29.96 in 10.0 mi WNW 4.6 mph - N/A   Clear
7:53 AM 66.9 °F - 55.0 °F 66% 29.98 in 10.0 mi West 3.5 mph - N/A   Clear
8:53 AM 73.9 °F - 55.0 °F 52% 29.99 in 10.0 mi West 5.8 mph - N/A   Clear
9:53 AM 80.1 °F 80.4 °F 57.0 °F 45% 29.99 in 10.0 mi West 8.1 mph - N/A   Clear
10:53 AM 84.9 °F 84.4 °F 59.0 °F 41% 29.99 in 10.0 mi WSW 10.4 mph - N/A   Clear
11:53 AM 87.1 °F 86.1 °F 57.9 °F 37% 30.00 in 10.0 mi SSW 10.4 mph - N/A   Clear
12:53 PM 89.1 °F 87.3 °F 55.9 °F 32% 29.97 in 10.0 mi Calm Calm - N/A   Partly Cloudy
1:53 PM 90.0 °F 87.9 °F 55.0 °F 30% 29.95 in 10.0 mi SSE 9.2 mph - N/A   Mostly Cloudy
2:53 PM 91.9 °F 89.5 °F 54.0 °F 27% 29.92 in 10.0 mi SSE 8.1 mph - N/A   Scattered Clouds
3:53 PM 93.0 °F 90.8 °F 54.0 °F 27% 29.88 in 10.0 mi South 8.1 mph - N/A   Mostly Cloudy
4:53 PM 93.9 °F 91.7 °F 54.0 °F 26% 29.87 in 10.0 mi South 11.5 mph - N/A   Mostly Cloudy
5:53 PM 90.0 °F 88.1 °F 55.9 °F 31% 29.88 in 10.0 mi ESE 20.7 mph - N/A   Mostly Cloudy
6:53 PM 84.0 °F 83.8 °F 59.0 °F 43% 29.90 in 10.0 mi SE 9.2 mph - N/A   Mostly Cloudy
7:53 PM 82.0 °F 82.7 °F 61.0 °F 49% 29.91 in 10.0 mi East 4.6 mph - N/A   Scattered Clouds
8:53 PM 78.1 °F - 60.1 °F 54% 29.91 in 10.0 mi East 5.8 mph - N/A   Partly Cloudy
9:53 PM 77.0 °F - 60.1 °F 56% 29.91 in 10.0 mi SE 10.4 mph - N/A   Clear
10:53 PM 75.0 °F - 59.0 °F 57% 29.92 in 10.0 mi SSE 6.9 mph - N/A   Clear
11:53 PM 73.9 °F - 59.0 °F 59% 29.92 in 10.0 mi SSE 8.1 mph - N/A   Partly Cloudy